Regional Weather Roundup
Issued by NWS Green Bay, WI

Home | Current Version | Previous Version | Graphics & Text | Print | Product List | Glossary Off
Versions: 1 2 3 4 5 6 7 8 9 10 11 12 13 14 15 16 17 18 19 20 21 22 23 24 25 26 27 28 29 30 31 32 33 34 35 36 37 38 39 40 41 42 43 44 45 46 47 48 49 50

000
ASUS43 KGRB 202300
RWRGRB

NORTH-CENTRAL AND NORTHEAST WISCONSIN REGIONAL WEATHER ROUNDUP
NATIONAL WEATHER SERVICE GREEN BAY WI
500 PM CST FRI JAN 20 2017

WIZ005-009-010>012-018-019-210000-
NORTH CENTRAL WISCONSIN

CITY           SKY/WX    TMP DP  RH WIND       PRES   REMARKS
IRONWOOD       LGT RAIN  37  35  92 E5        29.60F
MANITOWISH WTR NOT AVBL
ARBOR VITAE    NOT AVBL
EAGLE RIVER    NOT AVBL
LAND O LAKES   NOT AVBL
RHINELANDER    LGT RAIN  34  34 100 E6        29.61S
PHILLIPS       DRIZZLE   34  34 100 SE3       29.61R
ANTIGO         NOT AVBL
TOMAHAWK       NOT AVBL
MERRILL        DRIZZLE   34  34 100 SE3         N/A
$$

WIZ013-073-210000-
NORTHEAST WISCONSIN

CITY           SKY/WX    TMP DP  RH WIND       PRES   REMARKS
IRON MOUNTAIN  LGT RAIN  33  30  88 N5        29.63F FOG
MARINETTE      NOT AVBL
$$

WIZ017-030-035>037-045-210000-
CENTRAL WISCONSIN

CITY           SKY/WX    TMP DP  RH WIND       PRES   REMARKS
MEDFORD        NOT AVBL
WAUSAU         CLOUDY    34  33  96 SE6       29.62R
MOSINEE        NOT AVBL
MARSHFIELD     FOG       34  33  96 SE8       29.61S VSB 1
WISC RAPIDS    CLOUDY    35  35 100 E5        29.64S FOG
STEVENS POINT  NOT AVBL
WAUPACA        NOT AVBL
SHAWANO        NOT AVBL
CLINTONVILLE   CLOUDY    34  34 100 E3        29.66R FOG
WAUTOMA        CLOUDY    35  34  96 E3        29.65R FOG
$$

WIZ038-039-048-051-210000-
FOX VALLEY

CITY           SKY/WX    TMP DP  RH WIND       PRES   REMARKS
NWS GREEN BAY  CLOUDY    35  35 100 NE6       29.65S FOG
APPLETON       FOG       34  34 100 NE6       29.63R VSB 3/4
OSHKOSH        CLOUDY    35  33  92 NE5       29.64S FOG
FOND DU LAC    CLOUDY    37  32  82 S5        29.65R
$$

WIZ022-050-052-210000-
EAST CENTRAL WISCONSIN

CITY           SKY/WX    TMP DP  RH WIND       PRES   REMARKS
EPHRAIM        NOT AVBL
WASHINGTON ISL NOT AVBL
STURGEON BAY   CLOUDY    34  33  96 SE3       29.66R
MANITOWOC      NOT AVBL
SHEBOYGAN      FOG       35  34  96 NE3       29.65R VSB 1/4
$$

LMZ563-521-522-541>543-210000-
LAKESHORE

STATION/POSITION TIME  TEMP    WIND        PRES    VSBY  WAVE
                       AIR SEA DIR/SP/G                  HT/PER
                 (UTC) (F)     (DEG/KT/KT) (MB)    (MI)  (FT/S)
SHEBOYGAN LKSHOR 2200   34     360/  5/  5 1004.3R
KEWAUNEE LKSHORE 2230   35      90/  4/  6 1004.0F
NORTHPORT PIER   2240   32     360/  2/  4 1005.1S
SISTER BAY LKSHO 2220   33      20/  5/  7   N/A
$$




USA.gov is the U.S. government's official web portal to all federal, state and local government web resources and services.